Regional Weather Roundup
Issued by NWS Sioux Falls, SD

Home | Current Version | Previous Version | Graphics & Text | Print | Product List | Glossary On
Versions: 1 2 3 4 5 6 7 8 9 10 11 12 13 14 15 16 17 18 19 20 21 22 23 24 25 26 27 28 29 30 31 32 33 34 35 36 37 38 39 40 41 42 43 44 45 46 47 48 49 50
000
ASUS43 KFSD 011910
RWRFSD

WEATHER ROUNDUP FOR SE SOUTH DAKOTA/SW MINNESOTA/NW IOWA
NATIONAL WEATHER SERVICE SIOUX FALLS SD
200 PM CDT TUE SEP 01 2015

NOTE: "FAIR" INDICATES FEW OR NO CLOUDS BELOW 12,000 FEET WITH NO
SIGNIFICANT WEATHER AND OR OBSTRUCTIONS TO VISIBILITY.


SDZ038>040-050-052>070-012000-
SOUTHEAST SOUTH DAKOTA

CITY           SKY/WX    TMP DP  RH WIND       PRES   REMARKS
BROOKINGS      CLOUDY    75  70  83 SE8       29.89F
CHAMBERLAIN    PTSUNNY   81  68  63 SE13      29.84F
HURON          CLOUDY    78  69  73 S6        29.83S
MADISON        FAIR      77  72  83 SE10      29.88F
MITCHELL       CLOUDY    76  71  85 S7        29.86R
SIOUX FALLS    CLOUDY    79  70  74 SE12      29.88F
WINNER         FAIR      88  60  38 SE14      29.84F
YANKTON        PTSUNNY   79  68  69 SE9       29.85F
$$

MNZ071-072-080-081-089-090-097-098-012000-
SOUTHWEST MINNESOTA

CITY           SKY/WX    TMP DP  RH WIND       PRES   REMARKS
FAIRMONT       MOSUNNY   82  68  61 S13       29.91S
JACKSON        PTSUNNY   81  72  74 SW6       29.93R
LUVERNE        PTSUNNY   81  70  69 SE3       29.91F
MARSHALL       CLOUDY    77  66  69 N3        29.91F
MONTEVIDEO     CLOUDY    79  70  73 SW8       29.91S
PIPESTONE      CLOUDY    82  70  65 E5        29.90F
REDWOOD FALLS  CLOUDY    81  71  71 S7        29.89R
TRACY          CLOUDY    82  72  71 CALM      29.92F
WINDOM         PTSUNNY   84  66  54 S9G16     29.91R
WORTHINGTON    PTSUNNY   81  70  69 SW6       29.92S
$$

IAZ001>003-012>014-020>022-031-032-NEZ013-014-SDZ071-012000-
NORTHWEST IOWA

CITY           SKY/WX    TMP DP  RH WIND       PRES   REMARKS
CHEROKEE       PTSUNNY   84  71  64 SW10G17   29.92S
DENISON        PTSUNNY   82  72  69 S12       29.93S
ESTHERVILLE    PTSUNNY   81  70  69 S10       29.92S
LE MARS        PTSUNNY   82  70  65 S12       29.90F
ORANGE CITY    PTSUNNY   82  70  65 SW9       29.92R
SHELDON        PTSUNNY   81  70  69 SW8       29.91R
SIOUX CITY     PTSUNNY   84  69  60 S9        29.90S
SPENCER        PTSUNNY   84  68  58 SW12      29.92S
STORM LAKE     PTSUNNY   81  70  69 SW12G17   29.95S
$$

ABBREVIATIONS USED IN REMARKS
   TC - TEMPERATURE IN CELSIUS
  WCI - WIND CHILL INDEX
   HX - HEAT INDEX
  VSB - VISIBILITY




USA.gov is the U.S. government's official web portal to all federal, state and local government web resources and services.